| time (UTC) | temp C | wind direction | speed KPH | gust KPH | rain 1hr cm | rain 24hr cm | rain mn cm | humidity % | barometer mb |
| 20260509174518 | 23 | 244 | 20.9 | 38.6 | 0.00 | 0.00 | 0.00 | 32 | 1005.7 |
| 20260509173041 | 22 | 360 | 17.7 | 33.8 | 0.00 | 0.00 | 0.00 | 31 | 1005.8 |
| 20260509171521 | 23 | 360 | 8.0 | 35.4 | 0.00 | 0.00 | 0.00 | 32 | 1005.9 |
| 20260509170012 | 23 | 313 | 17.7 | 33.8 | 0.00 | 0.00 | 0.00 | 33 | 1005.8 |
| 20260509164607 | 22 | 360 | 16.1 | 27.4 | 0.00 | 0.00 | 0.00 | 38 | 1005.8 |
| 20260509163056 | 21 | 360 | 6.4 | 22.5 | 0.00 | 0.00 | 0.00 | 40 | 1005.9 |
| 20260509161554 | 21 | 360 | 11.3 | 22.5 | 0.00 | 0.00 | 0.00 | 38 | 1005.9 |
| 20260509160049 | 21 | 360 | 3.2 | 17.7 | 0.00 | 0.00 | 0.00 | 33 | 1006.3 |
| 20260509154543 | 20 | 360 | 9.7 | 20.9 | 0.00 | 0.00 | 0.00 | 19 | 1006.4 |
| 20260509153039 | 19 | 249 | 6.4 | 22.5 | 0.00 | 0.00 | 0.00 | 18 | 1006.5 |
| 20260509151540 | 18 | 360 | 9.7 | 20.9 | 0.00 | 0.00 | 0.00 | 1 | 1006.5 |
| 20260509150032 | 17 | 360 | 9.7 | 19.3 | 0.00 | 0.00 | 0.00 | 100 | 1006.5 |
| 20260509144525 | 17 | 360 | 11.3 | 19.3 | 0.00 | 0.00 | 0.00 | 100 | 1006.6 |
| 20260509143021 | 17 | 360 | 4.8 | 19.3 | 0.00 | 0.00 | 0.00 | 100 | 1006.6 |
| 20260509141517 | 16 | 360 | 8.0 | 24.1 | 0.00 | 0.00 | 0.00 | 100 | 1006.3 |
| 20260509140014 | 16 | 360 | 6.4 | 20.9 | 0.00 | 0.00 | 0.00 | 100 | 1006.4 |
| 20260509134508 | 15 | 261 | 11.3 | 25.7 | 0.00 | 0.00 | 0.00 | 100 | 1006.3 |
| 20260509133004 | 15 | 360 | 6.4 | 20.9 | 0.00 | 0.00 | 0.00 | 100 | 1006.1 |
| 20260509131605 | 14 | 254 | 9.7 | 24.1 | 0.00 | 0.00 | 0.00 | 100 | 1006.1 |
| 20260509130126 | 13 | 360 | 8.0 | 20.9 | 0.00 | 0.00 | 0.00 | 100 | 1006.3 |
| 20260509124551 | 12 | 360 | 6.4 | 19.3 | 0.00 | 0.00 | 0.00 | 100 | 1006.1 |
| 20260509123116 | 12 | 360 | 1.6 | 17.7 | 0.00 | 0.00 | 0.00 | 100 | 1006.1 |
| 20260509121543 | 12 | 240 | 6.4 | 19.3 | 0.00 | 0.00 | 0.00 | 100 | 1006.1 |
| 20260509120047 | 11 | 246 | 3.2 | 17.7 | 0.00 | 0.00 | 0.00 | 100 | 1005.9 |
| 20260509114537 | 11 | 248 | 1.6 | 12.9 | 0.00 | 0.00 | 0.00 | 100 | 1005.9 |
| 20260509113029 | 11 | 229 | 0.0 | 12.9 | 0.00 | 0.00 | 0.00 | 100 | 1005.6 |
| 20260509111524 | 11 | 240 | 0.0 | 6.4 | 0.00 | 0.00 | 0.00 | 100 | 1005.6 |
| 20260509110026 | 11 | 248 | 0.0 | 11.3 | 0.00 | 0.00 | 0.00 | 100 | 1005.5 |
| 20260509104516 | 11 | 360 | 3.2 | 12.9 | 0.00 | 0.00 | 0.00 | 100 | 1005.7 |
| 20260509103011 | 11 | 256 | 1.6 | 12.9 | 0.00 | 0.00 | 0.00 | 100 | 1005.3 |
| 20260509101511 | 11 | 209 | 1.6 | 11.3 | 0.00 | 0.00 | 0.00 | 100 | 1005.2 |
| 20260509100006 | 11 | 219 | 1.6 | 9.7 | 0.00 | 0.00 | 0.00 | 100 | 1005.2 |
| 20260509094603 | 11 | 233 | 0.0 | 11.3 | 0.00 | 0.00 | 0.00 | 100 | 1005.5 |
| 20260509093054 | 11 | 220 | 0.0 | 9.7 | 0.00 | 0.00 | 0.00 | 100 | 1005.6 |
| 20260509091553 | 11 | 231 | 0.0 | 9.7 | 0.00 | 0.00 | 0.00 | 100 | 1005.8 |
| 20260509090046 | 11 | 245 | 1.6 | 8.0 | 0.00 | 0.00 | 0.00 | 100 | 1005.9 |
| 20260509084541 | 11 | 221 | 0.0 | 9.7 | 0.00 | 0.00 | 0.00 | 100 | 1005.9 |
| 20260509083036 | 11 | 225 | 0.0 | 12.9 | 0.00 | 0.00 | 0.00 | 100 | 1006.0 |
| 20260509081532 | 12 | 234 | 0.0 | 9.7 | 0.00 | 0.00 | 0.00 | 100 | 1006.0 |
| 20260509080028 | 12 | 236 | 0.0 | 9.7 | 0.00 | 0.00 | 0.00 | 100 | 1006.1 |
| 20260509074523 | 12 | 232 | 0.0 | 6.4 | 0.00 | 0.00 | 0.00 | 100 | 1006.0 |
| 20260509073020 | 12 | 244 | 0.0 | 6.4 | 0.00 | 0.00 | 0.00 | 100 | 1006.2 |
| 20260509071514 | 12 | 232 | 0.0 | 8.0 | 0.00 | 0.00 | 0.00 | 100 | 1006.3 |
| 20260509070011 | 12 | 234 | 0.0 | 9.7 | 0.00 | 0.00 | 0.00 | 100 | 1006.6 |
| 20260509064505 | 12 | 246 | 1.6 | 9.7 | 0.00 | 0.00 | 0.00 | 100 | 1006.9 |
| 20260509063001 | 12 | 238 | 0.0 | 12.9 | 0.00 | 0.00 | 0.00 | 100 | 1006.9 |
| 20260509061607 | 12 | 250 | 1.6 | 12.9 | 0.00 | 0.00 | 0.00 | 100 | 1007.1 |
| 20260509060053 | 13 | 244 | 1.6 | 12.9 | 0.00 | 0.00 | 0.00 | 100 | 1007.2 |
| 20260509054608 | 13 | 360 | 0.0 | 9.7 | 0.00 | 0.00 | 0.00 | 100 | 1007.2 |
| 20260509053051 | 13 | 219 | 0.0 | 9.7 | 0.00 | 0.00 | 0.00 | 100 | 1007.4 |
| 20260509051539 | 13 | 360 | 0.0 | 9.7 | 0.00 | 0.00 | 0.00 | 100 | 1007.5 |
| 20260509050036 | 13 | 223 | 0.0 | 12.9 | 0.00 | 0.00 | 0.00 | 100 | 1007.3 |
| 20260509044531 | 13 | 236 | 0.0 | 11.3 | 0.00 | 0.00 | 0.00 | 100 | 1007.3 |
| 20260509043026 | 14 | 223 | 0.0 | 11.3 | 0.00 | 0.00 | 0.00 | 100 | 1007.3 |
| 20260509041523 | 14 | 228 | 0.0 | 8.0 | 0.00 | 0.00 | 0.00 | 100 | 1007.5 |
| 20260509040033 | 15 | 230 | 0.0 | 9.7 | 0.00 | 0.00 | 0.00 | 100 | 1007.5 |
| 20260509034515 | 15 | 239 | 1.6 | 9.7 | 0.00 | 0.00 | 0.00 | 100 | 1007.5 |
| 20260509033009 | 15 | 246 | 3.2 | 11.3 | 0.00 | 0.00 | 0.00 | 100 | 1007.6 |
| 20260509031519 | 15 | 217 | 1.6 | 14.5 | 0.00 | 0.00 | 0.00 | 100 | 1007.6 |
| 20260509030110 | 16 | 184 | 3.2 | 12.9 | 0.00 | 0.00 | 0.00 | 100 | 1007.6 |
| 20260509024557 | 16 | 360 | 1.6 | 14.5 | 0.00 | 0.00 | 0.00 | 100 | 1007.6 |
| 20260509023102 | 16 | 213 | 3.2 | 14.5 | 0.00 | 0.00 | 0.00 | 18 | 1007.5 |
| 20260509021548 | 16 | 224 | 1.6 | 12.9 | 0.00 | 0.00 | 0.00 | 42 | 1007.5 |
| 20260509020045 | 16 | 232 | 0.0 | 0.0 | 0.00 | 0.00 | 0.00 | 45 | 1007.3 |
| 20260509014542 | 17 | 232 | 0.0 | 0.0 | 0.00 | 0.00 | 0.00 | 46 | 1007.4 |
| 20260509013036 | 17 | 230 | 0.0 | 0.0 | 0.00 | 0.00 | 0.00 | 47 | 1007.4 |
| 20260509011530 | 17 | 230 | 0.0 | 6.4 | 0.00 | 0.00 | 0.00 | 47 | 1007.4 |
| 20260509010030 | 18 | 238 | 0.0 | 6.4 | 0.00 | 0.00 | 0.00 | 47 | 1007.3 |
| 20260509004521 | 18 | 244 | 0.0 | 12.9 | 0.00 | 0.00 | 0.00 | 46 | 1007.4 |
| 20260509003017 | 18 | 258 | 1.6 | 16.1 | 0.00 | 0.00 | 0.00 | 46 | 1007.3 |
| 20260509001512 | 19 | 251 | 3.2 | 16.1 | 0.00 | 0.00 | 0.00 | 46 | 1007.5 |
| 20260509000008 | 19 | 246 | 1.6 | 14.5 | 0.00 | 0.00 | 0.00 | 46 | 1007.6 |
| 20260508234504 | 19 | 217 | 0.0 | 14.5 | 0.00 | 0.00 | 0.00 | 44 | 1007.6 |
| 20260508233100 | 20 | 360 | 4.8 | 12.9 | 0.00 | 0.00 | 0.00 | 43 | 1007.6 |
| 20260508231558 | 20 | 257 | 0.0 | 8.0 | 0.00 | 0.00 | 0.00 | 43 | 1007.7 |
| 20260508230123 | 20 | 260 | 4.8 | 17.7 | 0.00 | 0.00 | 0.00 | 41 | 1007.3 |
| 20260508224550 | 21 | 360 | 1.6 | 16.1 | 0.00 | 0.00 | 0.00 | 41 | 1007.5 |
| 20260508223042 | 21 | 243 | 0.0 | 9.7 | 0.00 | 0.00 | 0.00 | 40 | 1007.6 |
| 20260508221538 | 21 | 215 | 3.2 | 11.3 | 0.00 | 0.00 | 0.00 | 41 | 1007.6 |
| 20260508220105 | 21 | 190 | 1.6 | 11.3 | 0.00 | 0.00 | 0.00 | 41 | 1007.9 |
| 20260508214530 | 20 | 166 | 0.0 | 8.0 | 0.00 | 0.00 | 0.00 | 42 | 1008.2 |
| 20260508213026 | 20 | 214 | 3.2 | 9.7 | 0.00 | 0.00 | 0.00 | 42 | 1008.3 |
| 20260508211524 | 19 | 209 | 0.0 | 4.8 | 0.00 | 0.00 | 0.00 | 44 | 1008.3 |
| 20260508210018 | 20 | 221 | 0.0 | 6.4 | 0.00 | 0.00 | 0.00 | 44 | 1008.4 |
| 20260508204512 | 20 | 223 | 0.0 | 6.4 | 0.00 | 0.00 | 0.00 | 44 | 1008.5 |
| 20260508203007 | 19 | 300 | 0.0 | 12.9 | 0.00 | 0.00 | 0.00 | 42 | 1008.6 |
| 20260508201502 | 20 | 254 | 0.0 | 9.7 | 0.00 | 0.00 | 0.00 | 42 | 1008.9 |
| 20260508194555 | 20 | 193 | 0.0 | 12.9 | 0.00 | 0.00 | 0.00 | 40 | 1009.2 |
| 20260508193055 | 20 | 195 | 0.0 | 6.4 | 0.00 | 0.00 | 0.00 | 41 | 1009.5 |
| 20260508191547 | 20 | 248 | 3.2 | 14.5 | 0.00 | 0.00 | 0.00 | 40 | 1009.8 |
| 20260508190050 | 20 | 360 | 6.4 | 14.5 | 0.00 | 0.00 | 0.00 | 40 | 1009.9 |
| 20260508184545 | 19 | 215 | 0.0 | 4.8 | 0.00 | 0.00 | 0.00 | 42 | 1010.1 |
| 20260508183034 | 19 | 136 | 0.0 | 6.4 | 0.00 | 0.00 | 0.00 | 42 | 1010.3 |
| 20260508181537 | 20 | 198 | 0.0 | 9.7 | 0.00 | 0.00 | 0.00 | 41 | 1010.6 |
| 20260508180024 | 20 | 205 | 3.2 | 11.3 | 0.00 | 0.00 | 0.00 | 40 | 1010.8 |